• In Hungary
  • List of Countries
  • For 7 days
  • Water Temperature
  • Satellite Maps
  • Weather Map
  • News
  • Weather Widgets
  • user-avatar
    Login

    Hourly Weather Humpolec

    Today, 19 June, Tuesday

    Time Temperature Precipitation Wind Pressure Humidity
    00:00 +14°C° 0 mm 1 mps 716 mmHg 87%
    01:00 +14°C° 0 mm 2 mps 716 mmHg 86%
    02:00 +13°C° 0 mm 1 mps 716 mmHg 86%
    03:00 +13°C° 0 mm 1 mps 716 mmHg 87%
    04:00 +13°C° 0 mm 1 mps 716 mmHg 88%
    05:00 +14°C° 0 mm 2 mps 716 mmHg 85%
    06:00 +16°C° 0 mm 2 mps 717 mmHg 82%
    07:00 +18°C° 0 mm 2 mps 717 mmHg 76%
    08:00 +19°C° 0 mm 3 mps 717 mmHg 72%
    09:00 +20°C° 0 mm 3 mps 717 mmHg 69%
    10:00 +21°C° 0 mm 3 mps 718 mmHg 65%
    11:00 +22°C° 0.1 mm 3 mps 718 mmHg 64%
    12:00 +22°C° 0.1 mm 3 mps 718 mmHg 63%
    13:00 +22°C° 0 mm 3 mps 718 mmHg 62%
    14:00 +22°C° 0 mm 3 mps 718 mmHg 63%
    15:00 +22°C° 0 mm 3 mps 718 mmHg 63%
    16:00 +22°C° 0 mm 3 mps 718 mmHg 64%
    17:00 +21°C° 0 mm 3 mps 717 mmHg 69%
    18:00 +21°C° 0 mm 2 mps 717 mmHg 74%
    19:00 +20°C° 0 mm 2 mps 717 mmHg 79%
    20:00 +18°C° 0 mm 2 mps 717 mmHg 82%
    21:00 +18°C° 0 mm 1 mps 717 mmHg 85%
    22:00 +16°C° 0 mm 1 mps 718 mmHg 88%
    23:00 +16°C° 0 mm 1 mps 718 mmHg 89%

    Tomorrow, 20 June, Wednesday

    Time Temperature Precipitation Wind Pressure Humidity
    00:00 +15°C° 0 mm 1 mps 718 mmHg 89%
    01:00 +15°C° 0 mm 1 mps 718 mmHg 90%
    02:00 +15°C° 0 mm 1 mps 718 mmHg 90%
    03:00 +15°C° 0 mm 1 mps 717 mmHg 91%
    04:00 +14°C° 0 mm 1 mps 717 mmHg 92%
    05:00 +16°C° 0 mm 1 mps 718 mmHg 88%
    06:00 +18°C° 0 mm 1 mps 718 mmHg 84%
    07:00 +20°C° 0 mm 1 mps 718 mmHg 81%
    08:00 +21°C° 0 mm 1 mps 718 mmHg 76%
    09:00 +22°C° 0 mm 1 mps 718 mmHg 71%
    10:00 +24°C° 0 mm 1 mps 718 mmHg 65%
    11:00 +24°C° 0 mm 1 mps 718 mmHg 64%
    12:00 +25°C° 0 mm 1 mps 718 mmHg 62%
    13:00 +25°C° 0 mm 1 mps 717 mmHg 60%
    14:00 +26°C° 0.1 mm 1 mps 717 mmHg 60%
    15:00 +26°C° 0.1 mm 1 mps 717 mmHg 61%
    16:00 +26°C° 0.1 mm 1 mps 716 mmHg 61%
    17:00 +25°C° 0 mm 1 mps 716 mmHg 65%
    18:00 +24°C° 0 mm 1 mps 716 mmHg 70%
    19:00 +23°C° 0 mm 1 mps 715 mmHg 75%
    20:00 +22°C° 0 mm 1 mps 715 mmHg 78%
    21:00 +20°C° 0 mm 1 mps 715 mmHg 81%
    22:00 +19°C° 0 mm 1 mps 715 mmHg 84%
    23:00 +19°C° 0 mm 1 mps 715 mmHg 85%

    Day after tomorrow, 21 June, Thursday

    Time Temperature Precipitation Wind Pressure Humidity
    00:00 +18°C° 0 mm 1 mps 714 mmHg 86%
    01:00 +18°C° 0 mm 1 mps 714 mmHg 87%
    02:00 +16°C° 0 mm 1 mps 714 mmHg 88%
    03:00 +16°C° 0 mm 1 mps 713 mmHg 89%
    04:00 +16°C° 0 mm 1 mps 713 mmHg 89%
    05:00 +19°C° 0 mm 1 mps 713 mmHg 86%
    06:00 +20°C° 0 mm 1 mps 713 mmHg 83%
    07:00 +22°C° 0 mm 1 mps 713 mmHg 80%
    08:00 +23°C° 0 mm 2 mps 713 mmHg 76%
    09:00 +24°C° 0 mm 2 mps 712 mmHg 71%
    10:00 +26°C° 0 mm 2 mps 712 mmHg 67%
    11:00 +26°C° 0.1 mm 3 mps 711 mmHg 65%
    12:00 +27°C° 0.1 mm 4 mps 711 mmHg 62%
    13:00 +28°C° 0.1 mm 4 mps 710 mmHg 60%
    14:00 +27°C° 0.5 mm 4 mps 710 mmHg 63%
    15:00 +27°C° 0.5 mm 5 mps 709 mmHg 66%
    16:00 +26°C° 0.5 mm 5 mps 709 mmHg 69%
    17:00 +23°C° 0.8 mm 6 mps 709 mmHg 74%
    18:00 +21°C° 0.8 mm 6 mps 710 mmHg 79%
    19:00 +19°C° 0.8 mm 6 mps 710 mmHg 84%
    20:00 +16°C° 0 mm 6 mps 711 mmHg 83%
    21:00 +13°C° 0 mm 6 mps 711 mmHg 82%
    22:00 +10°C° 0 mm 6 mps 712 mmHg 81%
    23:00 +9°C° 0 mm 6 mps 712 mmHg 79%

    22 June, Friday

    Time Temperature Precipitation Wind Pressure Humidity
    00:00 +8°C° 0 mm 5 mps 713 mmHg 76%
    01:00 +8°C° 0 mm 5 mps 713 mmHg 74%
    02:00 +7°C° 0 mm 4 mps 713 mmHg 76%
    03:00 +6°C° 0 mm 4 mps 713 mmHg 77%
    04:00 +5°C° 0 mm 4 mps 714 mmHg 79%
    05:00 +6°C° 0 mm 4 mps 714 mmHg 77%
    06:00 +7°C° 0 mm 5 mps 714 mmHg 74%
    07:00 +8°C° 0 mm 6 mps 714 mmHg 72%
    08:00 +9°C° 0 mm 6 mps 714 mmHg 69%
    09:00 +10°C° 0 mm 7 mps 714 mmHg 65%
    10:00 +11°C° 0 mm 7 mps 714 mmHg 62%
    11:00 +11°C° 0.1 mm 7 mps 714 mmHg 62%
    12:00 +12°C° 0.1 mm 7 mps 714 mmHg 62%
    13:00 +12°C° 0.1 mm 7 mps 714 mmHg 61%
    14:00 +12°C° 0.2 mm 7 mps 714 mmHg 62%
    15:00 +13°C° 0.2 mm 6 mps 714 mmHg 62%
    16:00 +14°C° 0.2 mm 6 mps 714 mmHg 63%
    17:00 +13°C° 0.1 mm 5 mps 714 mmHg 67%
    18:00 +12°C° 0.1 mm 4 mps 714 mmHg 72%
    19:00 +12°C° 0.1 mm 4 mps 714 mmHg 76%
    20:00 +11°C° 0 mm 4 mps 714 mmHg 80%
    21:00 +10°C° 0 mm 4 mps 714 mmHg 83%
    22:00 +7°C° 0 mm 4 mps 715 mmHg 87%
    23:00 +7°C° 0 mm 4 mps 715 mmHg 88%

    23 June, Saturday

    Time Temperature Precipitation Wind Pressure Humidity
    00:00 +7°C° 0 mm 4 mps 715 mmHg 90%
    01:00 +7°C° 0 mm 4 mps 715 mmHg 91%
    02:00 +6°C° 0 mm 4 mps 715 mmHg 92%
    03:00 +6°C° 0 mm 4 mps 715 mmHg 93%
    04:00 +6°C° 0 mm 4 mps 715 mmHg 93%
    05:00 +7°C° 0 mm 4 mps 715 mmHg 91%
    06:00 +8°C° 0 mm 5 mps 715 mmHg 88%
    07:00 +8°C° 0 mm 5 mps 715 mmHg 85%
    08:00 +9°C° 0.1 mm 5 mps 715 mmHg 81%
    09:00 +9°C° 0.1 mm 5 mps 716 mmHg 77%
    10:00 +10°C° 0.1 mm 6 mps 716 mmHg 73%
    11:00 +11°C° 0 mm 6 mps 716 mmHg 70%
    12:00 +11°C° 0 mm 6 mps 715 mmHg 67%
    13:00 +13°C° 0 mm 6 mps 715 mmHg 64%
    14:00 +13°C° 0 mm 6 mps 715 mmHg 63%
    15:00 +14°C° 0 mm 5 mps 715 mmHg 62%
    16:00 +14°C° 0 mm 5 mps 715 mmHg 61%
    17:00 +14°C° 0 mm 4 mps 715 mmHg 66%
    18:00 +13°C° 0 mm 4 mps 715 mmHg 71%
    19:00 +12°C° 0 mm 3 mps 715 mmHg 76%
    20:00 +11°C° 0 mm 3 mps 715 mmHg 79%
    21:00 +10°C° 0 mm 3 mps 715 mmHg 82%
    22:00 +9°C° 0 mm 2 mps 715 mmHg 85%
    23:00 +9°C° 0 mm 2 mps 715 mmHg 86%

    24 June, Sunday

    Time Temperature Precipitation Wind Pressure Humidity
    00:00 +9°C° 0 mm 2 mps 715 mmHg 87%
    01:00 +8°C° 0 mm 2 mps 715 mmHg 89%
    02:00 +8°C° 0 mm 2 mps 715 mmHg 90%
    03:00 +8°C° 0 mm 2 mps 715 mmHg 91%
    04:00 +8°C° 0 mm 2 mps 715 mmHg 92%
    05:00 +9°C° 0 mm 3 mps 715 mmHg 89%
    06:00 +10°C° 0 mm 3 mps 715 mmHg 86%
    07:00 +10°C° 0 mm 3 mps 715 mmHg 83%
    08:00 +11°C° 0.1 mm 3 mps 716 mmHg 79%
    09:00 +12°C° 0.1 mm 4 mps 716 mmHg 74%
    10:00 +13°C° 0.1 mm 4 mps 716 mmHg 69%
    11:00 +13°C° 0.1 mm 4 mps 716 mmHg 67%
    12:00 +14°C° 0.1 mm 4 mps 716 mmHg 66%
    13:00 +14°C° 0.1 mm 4 mps 716 mmHg 65%
    14:00 +14°C° 0.1 mm 4 mps 715 mmHg 65%
    15:00 +14°C° 0.1 mm 4 mps 715 mmHg 65%
    16:00 +14°C° 0.1 mm 4 mps 715 mmHg 64%
    17:00 +14°C° 0 mm 3 mps 715 mmHg 69%
    18:00 +13°C° 0 mm 3 mps 715 mmHg 73%
    19:00 +13°C° 0 mm 2 mps 715 mmHg 77%
    20:00 +12°C° 0 mm 2 mps 715 mmHg 81%
    21:00 +9°C° 0 mm 2 mps 715 mmHg 85%
    22:00 +9°C° 0 mm 1 mps 716 mmHg 89%
    23:00 +9°C° 0 mm 1 mps 716 mmHg 90%
    Show more